This demonstration page uses our WeatherBlox Daily Observations layout. Learn more.

Left ArrowRight Arrow

Hourly Observations for May 4, 2020

Temp ( °F °C ) Dew Point ( °F °C ) Humidity (%) Winds ( mph kmh ) Pressure ( in mb ) Visibility ( mi km ) Precip ( " mm )
12:51 am 00:51 Clear 72 22.2 30 -1.1 21 21 NNW 8 13 29.79 1009 10 16.0934 0 0
1:51 am 01:51 Clear 68 20 30 -1.1 24 24 WSW 3 6 29.79 1009 10 16.0934 0 0
2:51 am 02:51 Clear 63 17.2 29 -1.7 28 28 ESE 3 6 29.79 1009 10 16.0934 0 0
3:51 am 03:51 Clear 59 15 28 -2.2 31 31 Calm 29.81 1010 10 16.0934 0 0
4:51 am 04:51 Clear 57 13.9 27 -2.8 32 32 ESE 3 6 29.83 1010 10 16.0934 0 0
5:51 am 05:51 Sunny 56 13.3 28 -2.2 34 34 E 5 7 29.85 1011 10 16.0934 0 0
6:51 am 06:51 Sunny 63 17.2 30 -1.1 29 29 SE 8 13 29.88 1012 10 16.0934 0 0
7:51 am 07:51 Sunny 71 21.7 33 0.6 25 25 SSE 5 7 29.88 1012 10 16.0934 0 0
8:51 am 08:51 Sunny 76 24.4 33 0.6 21 21 Calm 29.87 1012 10 16.0934 0 0
9:51 am 09:51 Sunny 83 28.3 31 -0.6 15 15 WNW 8 13 29.85 1011 10 16.0934 0 0
10:51 am 10:51 Sunny 87 30.6 30 -1.1 13 13 NW 5 7 29.84 1011 10 16.0934 0 0
11:51 am 11:51 Sunny 90 32.2 26 -3.3 10 10 W 9 15 29.81 1010 10 16.0934 0 0
12:51 pm 12:51 Sunny 92 33.3 27 -2.8 10 10 NW 18 30 29.78 1009 10 16.0934 0 0
1:51 pm 13:51 Sunny 94 34.4 25 -3.9 8 8 NW 14 22 29.77 1008 10 16.0934 0 0
2:10 pm 14:10 Sunny 95 35 26 -3.3 8 8 W 14 22 29.63 1003 10 16.0934 0 0
2:51 pm 14:51 Sunny 93 33.9 26 -3.3 9 9 VRB 5 7 29.75 1008 10 16.0934 0 0
3:51 pm 15:51 Sunny 94 34.4 23 -5 8 8 NW 16 26 29.74 1007 10 16.0934 0 0
4:51 pm 16:51 Sunny 94 34.4 17 -8.3 6 6 NW 18 30 29.74 1007 10 16.0934 0 0
5:51 pm 17:51 Sunny 92 33.3 21 -6.1 7 7 NW 16 26 29.75 1007 10 16.0934 0 0
6:51 pm 18:51 Sunny 87 30.6 20 -6.7 8 8 WNW 15 24 29.76 1008 10 16.0934 0 0
7:51 pm 19:51 Clear 82 27.8 21 -6.1 10 10 NW 10 17 29.78 1008 10 16.0934 0 0
8:51 pm 20:51 Clear 79 26.1 21 -6.1 11 11 NNW 12 19 29.79 1009 10 16.0934 0 0
9:51 pm 21:51 Clear 76 24.4 21 -6.1 13 13 NW 10 17 29.8 1009 10 16.0934 0 0
10:51 pm 22:51 Clear 75 23.9 22 -5.6 14 14 NNW 10 17 29.8 1009 10 16.0934 0 0
11:51 pm 23:51 Clear 70 21.1 23 -5 17 17 NW 10 17 29.8 1009 10 16.0934 0 0

Powered by AerisWeather